Date String (YYYY-MM-DD hh:mm:ss) UTC,Instrument flags,Ambient pressure (hPa),Sample flow (lpm),Bypass flow (lpm),Sample temperature (°C),Ambient temperature (°C),ASC tube jacket temperature (°C),LED temperature (°C),Box temperature (°C),Sample RH (%),Span deviation,Mass concentration (μg/m³),Mass concentration (μg/m³),Mass concentration (μg/m³)
DateTimeUTC,F1_M11,P_M11,Q1_M11,Q2_M11,T1_M11,T2_M11,T3_M11,T4_M11,T5_M11,U1_M11,ZSPAN_M11,X0_M11,X2_M11,X1_M11
2023-05-09 05:00:00,,0828.3,5.00,0.00,29.6,27.7,00.0,38.2,31.2,15.1,0000.0,0009.31,0003.14,0001.89
2023-05-09 05:01:00,,0828.3,5.00,0.00,29.6,27.7,00.0,38.2,31.2,15.1,0000.0,0009.26,0003.11,0001.87
2023-05-09 05:02:00,,0828.3,5.01,0.00,29.6,27.7,00.0,38.2,31.3,15.1,0000.0,0008.79,0003.11,0001.86
2023-05-09 05:03:00,,0828.3,5.00,0.00,29.6,27.7,00.0,38.2,31.3,15.1,0000.0,0008.75,0003.11,0001.85
2023-05-09 05:04:00,,0828.3,5.00,0.00,29.7,27.8,00.0,38.2,31.3,15.0,0000.0,0008.81,0003.11,0001.83
2023-05-09 05:05:00,,0828.3,5.01,0.00,29.7,27.9,00.0,38.2,31.3,15.0,0000.0,0008.66,0003.03,0001.81
2023-05-09 05:06:00,,0828.2,4.99,0.00,29.7,27.9,00.0,38.2,31.3,14.9,0000.0,0008.53,0002.99,0001.80
2023-05-09 05:07:00,,0828.2,4.98,0.00,29.7,27.9,00.0,38.1,31.3,14.9,0000.0,0008.45,0002.97,0001.79
2023-05-09 05:08:00,,0828.2,5.00,0.00,29.7,28.0,00.0,38.1,31.3,14.9,0000.0,0008.24,0002.95,0001.78
2023-05-09 05:09:00,,0828.3,5.01,0.00,29.7,28.0,00.0,38.1,31.4,14.9,0000.0,0007.57,0002.92,0001.77
2023-05-09 05:10:00,,0828.3,5.00,0.00,29.7,28.0,00.0,38.1,31.4,14.9,0000.0,0008.13,0002.96,0001.76
2023-05-09 05:11:00,,0828.3,4.98,0.00,29.7,28.0,00.0,38.1,31.3,14.9,0000.0,0008.16,0002.95,0001.75
2023-05-09 05:12:00,,0828.3,5.01,0.00,29.7,28.0,00.0,38.1,31.4,14.9,0000.0,0008.03,0002.99,0001.74
2023-05-09 05:13:00,,0828.2,5.01,0.00,29.7,28.0,00.0,38.1,31.4,14.9,0000.0,0007.68,0002.97,0001.75
2023-05-09 05:14:00,,0828.2,5.00,0.00,29.7,28.1,00.0,38.1,31.4,14.8,0000.0,0007.65,0002.95,0001.74
2023-05-09 05:15:00,,0828.2,4.99,0.00,29.7,28.1,00.0,38.1,31.4,14.8,0000.0,0007.52,0002.91,0001.74
2023-05-09 05:16:00,,0828.2,5.01,0.00,29.7,28.1,00.0,38.2,31.4,14.9,0000.0,0007.53,0002.98,0001.75
2023-05-09 05:17:00,,0828.2,5.01,0.00,29.7,28.2,00.0,38.2,31.4,14.9,0000.0,0007.45,0002.94,0001.74
2023-05-09 05:18:00,,0828.2,4.99,0.00,29.7,28.1,00.0,38.2,31.4,14.9,0000.0,0007.98,0002.97,0001.76
2023-05-09 05:19:00,,0828.2,5.01,0.00,29.7,28.1,00.0,38.2,31.4,14.9,0000.0,0008.64,0002.99,0001.78
2023-05-09 05:20:00,,0828.1,5.01,0.00,29.7,28.1,00.0,38.2,31.4,15.0,0000.0,0008.61,0002.99,0001.79
2023-05-09 05:21:00,,0828.2,5.00,0.00,29.7,28.1,00.0,38.2,31.3,15.0,0000.0,0007.80,0002.96,0001.79
2023-05-09 05:22:00,,0828.2,4.99,0.00,29.7,28.0,00.0,38.2,31.3,15.1,0000.0,0007.76,0003.01,0001.81
2023-05-09 05:23:00,,0828.2,5.01,0.00,29.7,27.9,00.0,38.2,31.3,15.2,0000.0,0007.73,0003.02,0001.83
2023-05-09 05:24:00,,0828.2,5.00,0.00,29.7,27.9,00.0,38.2,31.2,15.3,0000.0,0007.44,0003.03,0001.85
2023-05-09 05:25:00,,0828.2,5.00,0.00,29.7,27.9,00.0,38.2,31.2,15.3,0000.0,0007.46,0003.05,0001.88
2023-05-09 05:26:00,,0828.2,5.00,0.00,29.7,27.9,00.0,38.2,31.2,15.4,0000.0,0007.66,0003.10,0001.89
2023-05-09 05:27:00,,0828.2,5.00,0.00,29.7,27.8,00.0,38.1,31.2,15.4,0000.0,0007.84,0003.12,0001.89
2023-05-09 05:28:00,,0828.2,5.00,0.00,29.6,27.8,00.0,38.1,31.2,15.4,0000.0,0008.13,0003.15,0001.92
2023-05-09 05:29:00,,0828.2,5.00,0.00,29.6,27.8,00.0,38.1,31.2,15.5,0000.0,0007.88,0003.17,0001.91
2023-05-09 05:30:00,,0828.2,4.98,0.00,29.6,27.7,00.0,38.1,31.2,15.5,0000.0,0007.26,0003.17,0001.90
2023-05-09 05:31:00,,0828.1,5.01,0.00,29.6,27.7,00.0,38.1,31.1,15.5,0000.0,0007.47,0003.21,0001.91
2023-05-09 05:32:00,,0828.2,5.01,0.00,29.6,27.7,00.0,38.1,31.2,15.5,0000.0,0007.55,0003.23,0001.93
2023-05-09 05:33:00,,0828.2,5.01,0.00,29.6,27.7,00.0,38.1,31.2,15.6,0000.0,0007.43,0003.19,0001.91
2023-05-09 05:34:00,,0828.2,5.01,0.00,29.6,27.8,00.0,38.1,31.2,15.6,0000.0,0007.62,0003.13,0001.91
2023-05-09 05:35:00,,0828.2,5.00,0.00,29.6,27.8,00.0,38.1,31.3,15.6,0000.0,0008.25,0003.14,0001.91
2023-05-09 05:36:00,,0828.3,4.98,0.00,29.6,27.9,00.0,38.1,31.3,15.6,0000.0,0008.50,0003.17,0001.90
2023-05-09 05:37:00,,0828.3,5.00,0.00,29.6,27.9,00.0,38.1,31.3,15.6,0000.0,0008.84,0003.19,0001.89
2023-05-09 05:38:00,,0828.3,5.00,0.00,29.6,27.9,00.0,38.1,31.3,15.7,0000.0,0008.70,0003.18,0001.88
2023-05-09 05:39:00,,0828.3,5.00,0.00,29.6,27.9,00.0,38.1,31.3,15.8,0000.0,0008.55,0003.18,0001.87
2023-05-09 05:40:00,,0828.3,5.00,0.00,29.6,27.9,00.0,38.1,31.2,15.8,0000.0,0008.60,0003.23,0001.87
2023-05-09 05:41:00,,0828.4,5.00,0.00,29.6,27.9,00.0,38.1,31.2,15.8,0000.0,0008.67,0003.25,0001.87
2023-05-09 05:42:00,,0828.3,4.99,0.00,29.6,27.9,00.0,38.1,31.3,15.8,0000.0,0008.74,0003.26,0001.87
2023-05-09 05:43:00,,0828.3,5.00,0.00,29.6,27.9,00.0,38.1,31.3,15.8,0000.0,0009.37,0003.27,0001.88
2023-05-09 05:44:00,,0828.3,5.00,0.00,29.6,27.9,00.0,38.1,31.3,15.8,0000.0,0009.67,0003.27,0001.89
2023-05-09 05:45:00,,0828.3,5.00,0.00,29.6,28.0,00.0,38.1,31.3,15.9,0000.0,0009.87,0003.29,0001.90
2023-05-09 05:46:00,,0828.3,4.99,0.00,29.6,28.0,00.0,38.1,31.3,16.0,0000.0,0009.76,0003.27,0001.88
2023-05-09 05:47:00,,0828.2,5.00,0.00,29.7,28.0,00.0,38.1,31.3,16.0,0000.0,0009.44,0003.24,0001.90
2023-05-09 05:48:00,,0828.3,5.01,0.00,29.7,28.1,00.0,38.1,31.3,16.0,0000.0,0009.48,0003.24,0001.91
2023-05-09 05:49:00,,0828.3,5.01,0.00,29.7,28.1,00.0,38.1,31.4,16.0,0000.0,0009.32,0003.22,0001.94
2023-05-09 05:50:00,,0828.4,4.98,0.00,29.7,28.1,00.0,38.1,31.4,16.0,0000.0,0009.43,0003.21,0001.94
2023-05-09 05:51:00,,0828.3,5.01,0.00,29.7,28.2,00.0,38.1,31.4,16.0,0000.0,0010.53,0003.17,0001.96
2023-05-09 05:52:00,,0828.3,5.01,0.00,29.7,28.2,00.0,38.1,31.4,16.0,0000.0,0011.21,0003.14,0001.96
2023-05-09 05:53:00,,0828.3,4.99,0.00,29.7,28.2,00.0,38.1,31.4,16.0,0000.0,0011.45,0003.11,0001.97
2023-05-09 05:54:00,,0828.3,5.00,0.00,29.7,28.2,00.0,38.1,31.4,16.0,0000.0,0011.13,0003.13,0001.98
2023-05-09 05:55:00,,0828.3,5.00,0.00,29.7,28.2,00.0,38.1,31.4,15.9,0000.0,0012.10,0003.15,0002.00
2023-05-09 05:56:00,,0828.3,4.99,0.00,29.8,28.2,00.0,38.1,31.4,16.0,0000.0,0012.11,0003.20,0002.01
2023-05-09 05:57:00,,0828.3,5.00,0.00,29.8,28.2,00.0,38.1,31.4,16.1,0000.0,0011.66,0003.23,0002.04
2023-05-09 05:58:00,,0828.3,5.01,0.00,29.8,28.3,00.0,38.1,31.4,16.2,0000.0,0011.76,0003.28,0002.07
2023-05-09 05:59:00,,0828.2,5.01,0.00,29.8,28.3,00.0,38.1,31.4,16.1,0000.0,0011.37,0003.27,0002.08
